CAPE
16 0 0 0 0 0 0 0 0 6 27 11 19 11 14 5 30 65 67 60 61 69 52 29 6 19 5
0 0 0 0 0 0 0 0 0 0 11 29 17 2 13 8 8 0 33 53 53 67 72 56 38 32 44
14 0 0 0 0 3 7 0 0 0 0 1 32 5 2 9 7 6 10 25 39 66 91 66 46 41 43
27 10 9 16 8 6 2 0 1 0 7 10 10 1 2 15 9 2 5 13 26 62 84 99 57 51 44
26 34 10 14 3 2 2 2 1 2 0 11 17 19 9 33 32 13 11 9 9 21 39 73 50 46 47
10 26 37 9 4 0 6 11 0 0 0 17 33 21 35 20 12 22 16 21 9 26 1 50 68 30 36
36 29 28 10 48 23 3 10 2 0 3 0 0 5 5 1 0 13 19 10 22 20 6 4 23 56 51
51 38 27 31 26 18 20 1 7 15 7 14 11 18 10 4 26 8 26 17 8 12 12 5 7 1 47
26 36 20 20 7 17 5 16 3 22 42 4 5 9 4 3 11 12 2 2 0 3 13 16 17 13 4
0 9 12 11 3 13 5 6 0 2 1 12 2 0 0 4 2 13 5 5 5 2 8 2 7 2 5
0 2 0 0 4 3 1 0 7 10 12 7 2 1 0 0 0 0 0 0 0 0 0 0 0 5 5
0 1 0 0 0 4 4 6 4 12 0 0 0 0 0 0 0 0 0 0 0 0 0 0 0 10 0
3 0 3 0 0 0 0 0 0 0 0 0 0 0 0 0 0 0 0 0 0 0 0 0 0 0 0
0 0 0 0 0 0 0 0 0 0 0 0 0 0 0 0 0 0 0 0 0 0 0 0 0 0 0
0 0 0 0 0 0 0 0 0 0 0 0 0 0 0 0 0 0 0 0 0 0 0 0 0 0 3
0 0 0 0 0 0 0 0 0 0 0 0 0 0 0 0 0 0 0 0 0 0 0 0 0 0 0
0 0 0 0 0 0 0 0 0 0 0 0 0 0 0 0 0 0 0 0 0 0 0 0 0 0 0
CIN
-1 -0 -0 -0 -0 -0 -0 -0 -0 -63 -0 -12 -32 -18 -14 -39 -99 -82 -69 -79 -60 -32 -13 -3 -11 -10 -15
-0 -0 -0 -0 -0 -0 -0 -0 -0 -0 -16 -1 -1 -2 -57 -41 -55 -6 -121 -73 -71 -37 -13 -2 -1 -5 -2
-5 -0 -0 -0 -0 -0 -1 -0 -0 -0 -0 -4 -0 -8 -5 -1 -17 -25 -15 -32 -39 -48 -35 -31 -3 -6 -1
-0 -1 -4 -0 -3 -14 -2 -0 -0 -15 -3 -7 -0 -5 -4 -0 -0 -3 -14 -0 -37 -26 -36 -31 -6 -9 -4
-0 -3 -0 -0 -0 -0 -0 -0 -0 -0 -0 -12 -0 -1 -0 -0 -0 -3 -0 -3 -0 -39 -54 -17 -12 -7 -17
-0 -0 -0 -0 -1 -0 -0 -0 -0 -0 -0 -19 -0 -0 -4 -18 -46 -18 -4 -0 -0 -0 -0 -32 -19 -31 -26
-0 -0 -0 -0 -0 -4 -0 -1 -0 -0 -0 -0 -0 -0 -81 -11 -0 -9 -5 -23 -8 -5 -17 -0 -29 -14 -10
-0 -0 -0 -0 -0 -8 -0 -0 -2 -5 -9 -1 -1 -0 -14 -0 -1 -6 -0 -2 -3 -5 -0 -1 -6 -6 -1
-1 -0 -0 -0 -0 -3 -2 -15 -0 -0 -0 -2 -0 -0 -1 -1 -2 -0 -7 -2 -1 -2 -4 -2 -0 -4 -12
-0 -0 -0 -0 -0 -0 -0 -5 -0 -4 -1 -0 -0 -0 -0 -1 -3 -1 -3 -2 -0 -3 -19 -15 -0 -0 -3
-0 -0 -0 -0 -0 -5 -5 -4 -5 -7 -5 -0 -2 -4 -0 -0 -0 -0 -0 -0 -0 -0 -0 -0 -0 -0 -1
-0 -2 -0 -0 -0 -0 -2 -9 -4 -0 -1 -0 -0 -0 -0 -0 -0 -0 -0 -0 -0 -0 -0 -0 -0 -0 -0
-0 -0 -0 -0 -0 -0 -0 -0 -0 -0 -0 -0 -0 -0 -0 -0 -0 -0 -0 -0 -0 -0 -0 -0 -0 -0 -0
-0 -0 -0 -0 -0 -0 -0 -0 -0 -0 -0 -0 -0 -0 -0 -0 -0 -0 -0 -0 -0 -0 -0 -0 -0 -0 -0
-0 -0 -0 -0 -0 -0 -0 -0 -0 -0 -0 -0 -0 -0 -0 -0 -0 -0 -0 -0 -0 -0 -0 -0 -0 -0 -0
-0 -0 -0 -0 -0 -0 -0 -0 -0 -0 -0 -0 -0 -0 -0 -0 -0 -0 -0 -0 -0 -0 -0 -0 -0 -0 -0
-0 -0 -0 -0 -0 -0 -0 -0 -0 -0 -0 -0 -0 -0 -0 -0 -0 -0 -0 -0 -0 -0 -0 -0 -0 -0 -0
Wind_Speed
nan nan nan nan nan nan nan nan nan nan nan nan nan nan nan nan nan nan nan nan nan nan nan nan nan nan nan
nan nan nan nan nan nan nan nan nan nan nan nan nan nan nan nan nan nan nan nan nan nan nan nan nan nan nan
nan nan nan nan nan nan nan nan nan nan nan nan nan nan nan nan nan nan nan nan nan nan nan nan nan nan nan
nan nan nan nan nan nan nan nan nan nan nan nan nan nan nan nan nan nan nan nan nan nan nan nan nan nan nan
nan nan nan nan nan nan nan nan nan nan nan nan nan nan nan nan nan nan nan nan nan nan nan nan nan nan nan
nan nan nan nan nan nan nan nan nan nan nan nan nan nan nan nan nan nan nan nan nan nan nan nan nan nan nan
nan nan nan nan nan nan nan nan nan nan nan nan nan nan nan nan nan nan nan nan nan nan nan nan nan nan nan
nan nan nan nan nan nan nan nan nan nan nan nan nan nan nan nan nan nan nan nan nan nan nan nan nan nan nan
nan nan nan nan nan nan nan nan nan nan nan nan nan nan nan nan nan nan nan nan nan nan nan nan nan nan nan
nan nan nan nan nan nan nan nan nan nan nan nan nan nan nan nan nan nan nan nan nan nan nan nan nan nan nan
nan nan nan nan nan nan nan nan nan nan nan nan nan nan nan nan nan nan nan nan nan nan nan nan nan nan nan
nan nan nan nan nan nan nan nan nan nan nan nan nan nan nan nan nan nan nan nan nan nan nan nan nan nan nan
nan nan nan nan nan nan nan nan nan nan nan nan nan nan nan nan nan nan nan nan nan nan nan nan nan nan nan
nan nan nan nan nan nan nan nan nan nan nan nan nan nan nan nan nan nan nan nan nan nan nan nan nan nan nan
nan nan nan nan nan nan nan nan nan nan nan nan nan nan nan nan nan nan nan nan nan nan nan nan nan nan nan
nan nan nan nan nan nan nan nan nan nan nan nan nan nan nan nan nan nan nan nan nan nan nan nan nan nan nan
nan nan nan nan nan nan nan nan nan nan nan nan nan nan nan nan nan nan nan nan nan nan nan nan nan nan nan
Wind_Direction
nan nan nan nan nan nan nan nan nan nan nan nan nan nan nan nan nan nan nan nan nan nan nan nan nan nan nan
nan nan nan nan nan nan nan nan nan nan nan nan nan nan nan nan nan nan nan nan nan nan nan nan nan nan nan
nan nan nan nan nan nan nan nan nan nan nan nan nan nan nan nan nan nan nan nan nan nan nan nan nan nan nan
nan nan nan nan nan nan nan nan nan nan nan nan nan nan nan nan nan nan nan nan nan nan nan nan nan nan nan
nan nan nan nan nan nan nan nan nan nan nan nan nan nan nan nan nan nan nan nan nan nan nan nan nan nan nan
nan nan nan nan nan nan nan nan nan nan nan nan nan nan nan nan nan nan nan nan nan nan nan nan nan nan nan
nan nan nan nan nan nan nan nan nan nan nan nan nan nan nan nan nan nan nan nan nan nan nan nan nan nan nan
nan nan nan nan nan nan nan nan nan nan nan nan nan nan nan nan nan nan nan nan nan nan nan nan nan nan nan
nan nan nan nan nan nan nan nan nan nan nan nan nan nan nan nan nan nan nan nan nan nan nan nan nan nan nan
nan nan nan nan nan nan nan nan nan nan nan nan nan nan nan nan nan nan nan nan nan nan nan nan nan nan nan
nan nan nan nan nan nan nan nan nan nan nan nan nan nan nan nan nan nan nan nan nan nan nan nan nan nan nan
nan nan nan nan nan nan nan nan nan nan nan nan nan nan nan nan nan nan nan nan nan nan nan nan nan nan nan
nan nan nan nan nan nan nan nan nan nan nan nan nan nan nan nan nan nan nan nan nan nan nan nan nan nan nan
nan nan nan nan nan nan nan nan nan nan nan nan nan nan nan nan nan nan nan nan nan nan nan nan nan nan nan
nan nan nan nan nan nan nan nan nan nan nan nan nan nan nan nan nan nan nan nan nan nan nan nan nan nan nan
nan nan nan nan nan nan nan nan nan nan nan nan nan nan nan nan nan nan nan nan nan nan nan nan nan nan nan
nan nan nan nan nan nan nan nan nan nan nan nan nan nan nan nan nan nan nan nan nan nan nan nan nan nan nan